This is the latest recevied weather packets stored in our database for station/object CX2SA-13. If no packets are shown the sender has not sent any weather packets the latest 10 day(s).
| Time | Temp. | Humidity | Pressure | Rain* | Wind** | Luminosity | Snow |
|---|---|---|---|---|---|---|---|
| 1778075984 | 25.56° C | 87% | 1009.1 hPa | 0 mm | - | - | - |
| 1778075085 | 25.56° C | 87% | 1009.4 hPa | 0 mm | - | - | - |
| 1778074186 | 26.11° C | 86% | 1009.1 hPa | 0 mm | - | - | - |
| 1778073284 | 26.11° C | 86% | 1009.1 hPa | 0 mm | - | - | - |
| 1778072385 | 26.11° C | 87% | 1009.4 hPa | 0 mm | - | - | - |
| 1778071484 | 25° C | 90% | 1009.4 hPa | 0 mm | - | - | - |
| 1778070584 | 24.44° C | 90% | 1009.4 hPa | 0 mm | - | - | - |
| 1778069685 | 24.44° C | 91% | 1009.4 hPa | 0 mm | - | - | - |
| 1778068784 | 24.44° C | 92% | 1009.4 hPa | 0 mm | - | - | - |
| 1778067885 | 23.89° C | 93% | 1009.4 hPa | 0 mm | - | - | - |
| 1778066985 | 23.33° C | 94% | 1009.1 hPa | 0 mm | - | - | - |
| 1778066084 | 22.78° C | 95% | 1009.1 hPa | 0 mm | - | - | - |
| 1778065185 | 22.78° C | 95% | 1008.8 hPa | 0 mm | - | - | - |
| 1778064285 | 22.22° C | 95% | 1008.8 hPa | 0 mm | - | - | - |
| 1778063384 | 22.22° C | 96% | 1008.8 hPa | 0 mm | - | - | - |
| 1778062485 | 22.22° C | 96% | 1008.8 hPa | 0 mm | - | - | - |
| 1778061586 | 22.22° C | 96% | 1008.4 hPa | 0 mm | - | - | - |
| 1778060684 | 22.22° C | 96% | 1008.8 hPa | 0 mm | - | - | - |
| 1778059785 | 22.22° C | 97% | 1008.8 hPa | 0 mm | - | - | - |
| 1778058884 | 21.67° C | 97% | 1008.8 hPa | 0 mm | - | - | - |
| 1778057984 | 21.67° C | 97% | 1009.1 hPa | 0 mm | - | - | - |
| 1778057085 | 21.67° C | 97% | 1009.1 hPa | 0 mm | - | - | - |
| 1778056184 | 21.67° C | 97% | 1009.1 hPa | 0 mm | - | - | - |
| 1778055285 | 21.67° C | 97% | 1009.1 hPa | 0 mm | - | - | - |
| 1778054385 | 21.67° C | 97% | 1009.1 hPa | 0 mm | - | - | - |
* Rain since midnight (hover to see other rain measurements)
** Current wind speed in m/s (hover to see current wind gust speed)